Location: Saint Louis
(38.6272°N, 90.1978°W)
Time: 11:41:59
(UTC-05:00)

Tiangong 1 - Visible Passes

Search period start: 30 October 2014 00:00
Search period end: 08 November 2014 23:00
Orbit: 348 x 359 km, 42.8° (Epoch: 30 October)

Date Brightness Start Highest point End Pass type
(mag) Time Alt. Az. Time Alt. Az. Time Alt. Az.
30 Oct 1.8 19:05:50 10° WNW 19:08:38 36° N 19:09:46 25° NE visible
31 Oct 1.3 19:32:14 10° WNW 19:34:56 53° N 19:34:56 53° N visible
01 Nov 1.7 18:22:26 10° WNW 18:25:15 38° N 18:28:04 10° E visible
01 Nov 3.0 19:58:27 10° WNW 20:00:02 28° W 20:00:02 28° W visible
02 Nov 0.9 17:48:30 10° WNW 17:51:28 64° NNE 17:53:32 18° E visible
02 Nov 4.5 19:24:52 10° W 19:25:05 11° W 19:25:05 11° W visible
03 Nov 1.5 18:14:28 10° WNW 18:17:22 52° SSW 18:18:35 29° SE visible
04 Nov 3.3 18:40:45 10° W 18:42:56 19° SW 18:43:40 17° SSW visible
05 Nov 2.1 17:29:56 10° W 17:32:45 42° SSW 17:35:34 10° SE visible
06 Nov 3.8 17:56:08 10° WSW 17:57:59 15° SW 17:59:50 10° S visible
